Find Local Weather

World > North America > United States > Wisconsin

Green Lake, Wisconsin Regional Weather

Lat: 43.84N, Lon: 88.96W
Wx Zone: WIZ047
Warning FLW WEATHER ALERT - (More Info. Click Here) Warning
Feedback
Expires:201808201900;;957558
ASUS43 KMKX 201821
RWRWI 

WISCONSIN REGIONAL WEATHER ROUNDUP
NATIONAL WEATHER SERVICE MILWAUKEE/SULLIVAN WI
100 PM CDT MON AUG 20 2018

NOTE: "FAIR" INDICATES FEW OR NO CLOUDS BELOW 12,000 FEET WITH NO
SIGNIFICANT WEATHER AND/OR OBSTRUCTIONS TO VISIBILITY.


WIZ029-030-035-036-043>047-201900-
CENTRAL WISCONSIN
  
CITY           SKY/WX    TMP DP  RH WIND       PRES   REMARKS
WAUSAU         CLOUDY    71  62  73 NE6       29.95F                  
6HR MIN TEMP:  63; 6HR MAX TEMP:  72;                                

MOSINEE        CLOUDY    73  64  73 E7        29.98S                  
MARSHFIELD     CLOUDY    72  66  81 E10       29.95S                  
6HR MIN TEMP:  64; 6HR MAX TEMP:  72; 6HR PCP: TRACE;                

STEVENS POINT  FAIR      70  66  86 E6        29.96S                  
6HR MIN TEMP:  62; 6HR MAX TEMP:  70;                                

WAUPACA        FAIR      74  69  84 NE7       29.94S                  
6HR MIN TEMP:  65; 6HR MAX TEMP:  74;                                

WAUTOMA        PTSUNNY   74  69  85 NE8       29.92F                  
6HR MIN TEMP:  66; 6HR MAX TEMP:  74;                                

WISC RAPIDS    FAIR      73  64  73 NE6       29.95S                  
6HR MIN TEMP:  67; 6HR MAX TEMP:  73;                                

CAMP DOUGLAS   PTSUNNY   73  70  88 NE9       29.90F                  
$$
 

SKY/WX - Weather  TMP - Temperature  DP - Dewpoint  RH - Relative Humidity
WIND - Wind Direction/Speed PRES - Barometric Pressure